,,Stat5,,Stat1,,Stat2,,Stat3,,Stat4,,Wind1,,Wind1,
time,status,PA1M_AVG,status,PR1M_SUM,status,RH1M_AVG,status,SR1M_AVG,status,TA1M_AVG,status,W1dAve1m,status,W1sAve1m,
2003-01-13, 00:00:00,VALID,920.249,VALID,0,VALID,98.2925,VALID,-0.0849042,VALID,20.2095,VALID,108,VALID,0.0222039,
2003-01-13, 00:01:00,VALID,920.261,VALID,0,VALID,98.2162,VALID,-0.101885,VALID,20.2033,VALID,108,VALID,0,
2003-01-13, 00:02:00,VALID,920.253,VALID,0,VALID,97.939,VALID,-0.101885,VALID,20.1285,VALID,108,VALID,0,
2003-01-13, 00:03:00,VALID,920.259,VALID,0,VALID,97.7889,VALID,-0.101885,VALID,20.0872,VALID,108,VALID,0.10612,
2003-01-13, 00:04:00,VALID,920.256,VALID,0,VALID,97.8983,VALID,-0.101885,VALID,20.0741,VALID,108,VALID,0.26863,
2003-01-13, 00:05:00,VALID,920.253,VALID,0,VALID,98.103,VALID,-0.101885,VALID,20.1099,VALID,94,VALID,0.335526,
2003-01-13, 00:06:00,VALID,920.258,VALID,0,VALID,98.089,VALID,-0.101885,VALID,20.1131,VALID,92,VALID,0.231841,
2003-01-13, 00:07:00,VALID,920.261,VALID,0,VALID,98.1768,VALID,-0.135847,VALID,20.1325,VALID,92,VALID,0.0126689,
2003-01-13, 00:08:00,VALID,920.251,VALID,0,VALID,98.1602,VALID,-0.0509425,VALID,20.1317,VALID,92,VALID,0,
2003-01-13, 00:09:00,VALID,920.247,VALID,0,VALID,98.1539,VALID,-0.0679233,VALID,20.1345,VALID,92,VALID,0,
2003-01-13, 00:10:00,VALID,920.24,VALID,0,VALID,97.8195,VALID,-0.0169808,VALID,20.0828,VALID,92,VALID,0,
2003-01-13, 00:11:00,VALID,920.236,VALID,0,VALID,97.4723,VALID,-0.0339617,VALID,19.9657,VALID,92,VALID,0,
2003-01-13, 00:12:00,VALID,920.243,VALID,0,VALID,97.5054,VALID,-0.0679233,VALID,19.9537,VALID,92,VALID,0,
2003-01-13, 00:13:00,VALID,920.221,VALID,0,VALID,97.4914,VALID,-0.0339617,VALID,19.9373,VALID,92,VALID,0.147636,
2003-01-13, 00:14:00,VALID,920.218,VALID,0,VALID,97.4214,VALID,-0.0679233,VALID,19.9142,VALID,70,VALID,0.371711,
2003-01-13, 00:15:00,VALID,920.2,VALID,0,VALID,97.1951,VALID,-0.0509425,VALID,19.8956,VALID,50,VALID,0.503239,
2003-01-13, 00:16:00,VALID,920.194,VALID,0,VALID,97.1836,VALID,-0.0509425,VALID,19.8799,VALID,50,VALID,0.535056,
2003-01-13, 00:17:00,VALID,920.194,VALID,0,VALID,97.1595,VALID,-0.0339617,VALID,19.8436,VALID,49,VALID,0.442356,
2003-01-13, 00:18:00,VALID,920.187,VALID,0,VALID,97.1468,VALID,-0.0849042,VALID,19.818,VALID,37,VALID,0.603824,
2003-01-13, 00:19:00,VALID,920.175,VALID,0,VALID,97.2777,VALID,-0.0679233,VALID,19.8145,VALID,31,VALID,0.718339,
2003-01-13, 00:20:00,VALID,920.161,VALID,0,VALID,97.4342,VALID,-0.0509425,VALID,19.8372,VALID,21,VALID,0.864383,
2003-01-13, 00:21:00,VALID,920.149,VALID,0,VALID,97.5461,VALID,-0.0509425,VALID,19.8501,VALID,18,VALID,0.882813,
2003-01-13, 00:22:00,VALID,920.13,VALID,0,VALID,97.6096,VALID,-0.0679233,VALID,19.8538,VALID,16,VALID,0.876234,
2003-01-13, 00:23:00,VALID,920.116,VALID,0,VALID,97.5893,VALID,-0.0849042,VALID,19.8342,VALID,16,VALID,0.914732,
2003-01-13, 00:24:00,VALID,920.097,VALID,0,VALID,97.7457,VALID,-0.0679233,VALID,19.8441,VALID,25,VALID,0.779848,
2003-01-13, 00:25:00,VALID,920.079,VALID,0,VALID,97.7877,VALID,-0.0679233,VALID,19.8536,VALID,20,VALID,0.755757,
2003-01-13, 00:26:00,VALID,920.069,VALID,0,VALID,97.9161,VALID,-0.0679233,VALID,19.8628,VALID,17,VALID,0.809679,
2003-01-13, 00:27:00,VALID,920.044,VALID,0,VALID,98.0178,VALID,-0.0339617,VALID,19.8824,VALID,17,VALID,0.641036,
2003-01-13, 00:28:00,VALID,920.031,VALID,0,VALID,98.0394,VALID,-0.0849042,VALID,19.8859,VALID,19,VALID,0.550586,
2003-01-13, 00:29:00,VALID,920.015,VALID,0,VALID,97.972,VALID,-0.101885,VALID,19.8866,VALID,30,VALID,0.682813,
2003-01-13, 00:30:00,VALID,920.007,VALID,0,VALID,97.9619,VALID,-0.0849042,VALID,19.8829,VALID,34,VALID,0.609175,
2003-01-13, 00:31:00,VALID,919.994,VALID,0,VALID,97.9937,VALID,-0.0679233,VALID,19.8608,VALID,38,VALID,0.699219,
2003-01-13, 00:32:00,VALID,919.986,VALID,0,VALID,97.9771,VALID,-0.0509425,VALID,19.8409,VALID,41,VALID,0.712109,
2003-01-13, 00:33:00,VALID,919.966,VALID,0,VALID,98.0064,VALID,-0.0679233,VALID,19.821,VALID,34,VALID,0.869299,
2003-01-13, 00:34:00,VALID,919.95,VALID,0,VALID,98.0267,VALID,-0.0849042,VALID,19.7892,VALID,28,VALID,1.02745,
2003-01-13, 00:35:00,VALID,919.923,VALID,0,VALID,98.1196,VALID,-0.101885,VALID,19.7633,VALID,34,VALID,0.901758,
2003-01-13, 00:36:00,VALID,919.898,VALID,0,VALID,98.1285,VALID,-0.0849042,VALID,19.7375,VALID,28,VALID,0.903125,
2003-01-13, 00:37:00,VALID,919.876,VALID,0,VALID,98.1844,VALID,-0.101885,VALID,19.7114,VALID,19,VALID,0.729883,
2003-01-13, 00:38:00,VALID,919.861,VALID,0,VALID,98.2429,VALID,-0.0339617,VALID,19.7241,VALID,11,VALID,0.659655,
2003-01-13, 00:39:00,VALID,919.825,VALID,0,VALID,98.2442,VALID,0.0169808,VALID,19.7069,VALID,12,VALID,0.405016,
2003-01-13, 00:40:00,VALID,919.809,VALID,0,VALID,98.2683,VALID,0,VALID,19.7198,VALID,12,VALID,0.426192,
2003-01-13, 00:41:00,VALID,919.791,VALID,0,VALID,98.262,VALID,0,VALID,19.73,VALID,12,VALID,0.248998,
2003-01-13, 00:42:00,VALID,919.772,VALID,0,VALID,98.2798,VALID,0.0169808,VALID,19.7363,VALID,12,VALID,0.254102,
2003-01-13, 00:43:00,VALID,919.749,VALID,0,VALID,98.3268,VALID,0.0339617,VALID,19.7517,VALID,12,VALID,0.0254934,
2003-01-13, 00:44:00,VALID,919.751,VALID,0,VALID,98.295,VALID,0.0339617,VALID,19.7775,VALID,12,VALID,0,
2003-01-13, 00:45:00,VALID,919.735,VALID,0,VALID,98.2327,VALID,0.0339617,VALID,19.7942,VALID,12,VALID,0,
2003-01-13, 00:46:00,VALID,919.739,VALID,0,VALID,98.1564,VALID,0.0679233,VALID,19.7907,VALID,12,VALID,0,
2003-01-13, 00:47:00,VALID,919.736,VALID,0,VALID,98.1272,VALID,0.0339617,VALID,19.7904,VALID,12,VALID,0,
2003-01-13, 00:48:00,VALID,919.733,VALID,0,VALID,98.0776,VALID,0.0509425,VALID,19.8034,VALID,12,VALID,0,
2003-01-13, 00:49:00,VALID,919.739,VALID,0,VALID,98,VALID,0.0849042,VALID,19.8068,VALID,12,VALID,0,
2003-01-13, 00:50:00,VALID,919.718,VALID,0,VALID,97.9708,VALID,0.0339617,VALID,19.8063,VALID,12,VALID,0,
2003-01-13, 00:51:00,VALID,919.704,VALID,0,VALID,97.8919,VALID,0.0679233,VALID,19.8334,VALID,12,VALID,0.067508,
2003-01-13, 00:52:00,VALID,919.699,VALID,0,VALID,97.8017,VALID,0.0849042,VALID,19.8138,VALID,12,VALID,0.0404647,
2003-01-13, 00:53:00,VALID,919.684,VALID,0,VALID,97.7584,VALID,-0.0169808,VALID,19.821,VALID,12,VALID,0,
2003-01-13, 00:54:00,VALID,919.659,VALID,0,VALID,97.6389,VALID,-0.101885,VALID,19.8091,VALID,12,VALID,0,
2003-01-13, 00:55:00,VALID,919.64,VALID,0,VALID,97.5906,VALID,-0.0339617,VALID,19.7827,VALID,12,VALID,0,
2003-01-13, 00:56:00,VALID,919.615,VALID,0,VALID,97.6478,VALID,-0.0339617,VALID,19.7564,VALID,12,VALID,0,
2003-01-13, 00:57:00,VALID,919.61,VALID,0,VALID,97.7292,VALID,-0.0679233,VALID,19.7469,VALID,12,VALID,0.0137747,
2003-01-13, 00:58:00,VALID,919.595,VALID,0,VALID,97.7546,VALID,-0.101885,VALID,19.7405,VALID,12,VALID,0.122944,
2003-01-13, 00:59:00,VALID,919.579,VALID,0,VALID,97.7813,VALID,-0.0509425,VALID,19.7213,VALID,12,VALID,0.17508,
2003-01-13, 01:00:00,VALID,919.568,VALID,0,VALID,97.9072,VALID,-0.0509425,VALID,19.7079,VALID,12,VALID,0.165913,
2003-01-13, 01:01:00,VALID,919.564,VALID,0,VALID,97.9428,VALID,-0.0339617,VALID,19.6982,VALID,102,VALID,0.452508,
2003-01-13, 01:02:00,VALID,919.557,VALID,0,VALID,97.8843,VALID,-0.0849042,VALID,19.6863,VALID,143,VALID,0.45625,
2003-01-13, 01:03:00,VALID,919.554,VALID,0,VALID,97.8322,VALID,-0.0509425,VALID,19.6371,VALID,143,VALID,0.700321,
2003-01-13, 01:04:00,VALID,919.547,VALID,0,VALID,97.8767,VALID,-0.0509425,VALID,19.6117,VALID,145,VALID,0.595395,
2003-01-13, 01:05:00,VALID,919.544,VALID,0,VALID,97.9326,VALID,-0.0849042,VALID,19.5948,VALID,140,VALID,0.388672,
2003-01-13, 01:06:00,VALID,919.539,VALID,0,VALID,98.0267,VALID,-0.0679233,VALID,19.6018,VALID,123,VALID,0.398026,
2003-01-13, 01:07:00,VALID,919.529,VALID,0,VALID,98.1475,VALID,-0.0679233,VALID,19.6219,VALID,143,VALID,0.472852,
2003-01-13, 01:08:00,VALID,919.524,VALID,0,VALID,98.2505,VALID,-0.0339617,VALID,19.6371,VALID,132,VALID,0.514063,
2003-01-13, 01:09:00,VALID,919.536,VALID,0,VALID,98.3268,VALID,0,VALID,19.6398,VALID,130,VALID,0.478966,
2003-01-13, 01:10:00,VALID,919.527,VALID,0,VALID,98.4438,VALID,-0.0169808,VALID,19.6659,VALID,110,VALID,0.319531,
2003-01-13, 01:11:00,VALID,919.531,VALID,0,VALID,98.59,VALID,0,VALID,19.6851,VALID,148,VALID,0.74668,
2003-01-13, 01:12:00,VALID,919.526,VALID,0,VALID,98.6841,VALID,0.0169808,VALID,19.7241,VALID,140,VALID,0.540118,
2003-01-13, 01:13:00,VALID,919.53,VALID,0,VALID,98.7388,VALID,-0.0169808,VALID,19.7238,VALID,138,VALID,0.669341,
2003-01-13, 01:14:00,VALID,919.514,VALID,0,VALID,98.7973,VALID,0.0169808,VALID,19.7432,VALID,135,VALID,0.771484,
2003-01-13, 01:15:00,VALID,919.497,VALID,0,VALID,98.8418,VALID,-0.0169808,VALID,19.7559,VALID,127,VALID,0.742411,
2003-01-13, 01:16:00,VALID,919.473,VALID,0,VALID,98.9016,VALID,-0.0169808,VALID,19.7825,VALID,143,VALID,0.904492,
2003-01-13, 01:17:00,VALID,919.461,VALID,0,VALID,98.9575,VALID,0,VALID,19.7822,VALID,135,VALID,0.823918,
2003-01-13, 01:18:00,VALID,919.436,VALID,0,VALID,98.9995,VALID,0,VALID,19.7986,VALID,152,VALID,0.432155,
2003-01-13, 01:19:00,VALID,919.407,VALID,0,VALID,99.0211,VALID,0.0169808,VALID,19.7984,VALID,150,VALID,0.935033,
2003-01-13, 01:20:00,VALID,919.385,VALID,0,VALID,99.0567,VALID,0,VALID,19.8108,VALID,139,VALID,1.03145,
2003-01-13, 01:21:00,VALID,919.364,VALID,0,VALID,99.1,VALID,0,VALID,19.831,VALID,148,VALID,0.880273,
2003-01-13, 01:22:00,VALID,919.34,VALID,0,VALID,99.1152,VALID,0.0169808,VALID,19.8431,VALID,138,VALID,0.91653,
2003-01-13, 01:23:00,VALID,919.332,VALID,0,VALID,99.133,VALID,0,VALID,19.8337,VALID,139,VALID,0.988582,
2003-01-13, 01:24:00,VALID,919.32,VALID,0,VALID,99.1534,VALID,0,VALID,19.8528,VALID,139,VALID,1.01242,
2003-01-13, 01:25:00,VALID,919.297,VALID,0,VALID,99.1635,VALID,0,VALID,19.8563,VALID,113,VALID,0.647593,
2003-01-13, 01:26:00,VALID,919.284,VALID,0,VALID,99.175,VALID,0,VALID,19.8603,VALID,106,VALID,0.115921,
2003-01-13, 01:27:00,VALID,919.257,VALID,0,VALID,99.2068,VALID,-0.0169808,VALID,19.873,VALID,106,VALID,0.22168,
2003-01-13, 01:28:00,VALID,919.233,VALID,0,VALID,99.2233,VALID,-0.0169808,VALID,19.8856,VALID,110,VALID,0.266085,
2003-01-13, 01:29:00,VALID,919.209,VALID,0,VALID,99.2373,VALID,-0.0169808,VALID,19.905,VALID,135,VALID,0.195107,
2003-01-13, 01:30:00,VALID,919.187,VALID,0,VALID,99.2424,VALID,-0.0169808,VALID,19.9083,VALID,142,VALID,0.33734,
2003-01-13, 01:31:00,VALID,919.168,VALID,0,VALID,99.2437,VALID,0,VALID,19.9184,VALID,116,VALID,0.503806,
2003-01-13, 01:32:00,VALID,919.141,VALID,0,VALID,99.2437,VALID,0,VALID,19.912,VALID,108,VALID,0.396998,
2003-01-13, 01:33:00,VALID,919.129,VALID,0,VALID,99.2525,VALID,-0.0169808,VALID,19.915,VALID,139,VALID,0.416921,
2003-01-13, 01:34:00,VALID,919.12,VALID,0,VALID,99.2729,VALID,-0.0509425,VALID,19.915,VALID,68,VALID,0.259816,
2003-01-13, 01:35:00,VALID,919.107,VALID,0,VALID,99.2754,VALID,-0.0169808,VALID,19.9179,VALID,56,VALID,0.424831,
2003-01-13, 01:36:00,VALID,919.094,VALID,0,VALID,99.264,VALID,-0.0169808,VALID,19.9214,VALID,63,VALID,0.525082,
2003-01-13, 01:37:00,VALID,919.08,VALID,0,VALID,99.2602,VALID,-0.0339617,VALID,19.9088,VALID,51,VALID,0.790913,
2003-01-13, 01:38:00,VALID,919.068,VALID,0,VALID,99.2602,VALID,0,VALID,19.915,VALID,72,VALID,0.829928,
2003-01-13, 01:39:00,VALID,919.066,VALID,0,VALID,99.25,VALID,-0.0169808,VALID,19.9025,VALID,95,VALID,0.434827,
2003-01-13, 01:40:00,VALID,919.053,VALID,0,VALID,99.2564,VALID,-0.0339617,VALID,19.9053,VALID,56,VALID,0.379729,
2003-01-13, 01:41:00,VALID,919.052,VALID,0,VALID,99.2538,VALID,0,VALID,19.8983,VALID,49,VALID,0.59375,
2003-01-13, 01:42:00,VALID,919.041,VALID,0,VALID,99.2513,VALID,0,VALID,19.902,VALID,57,VALID,0.572316,
2003-01-13, 01:43:00,VALID,919.047,VALID,0,VALID,99.2258,VALID,0,VALID,19.9115,VALID,69,VALID,0.445724,
2003-01-13, 01:44:00,VALID,919.031,VALID,0,VALID,99.2068,VALID,0,VALID,19.8824,VALID,70,VALID,0.418186,
2003-01-13, 01:45:00,VALID,919.036,VALID,0,VALID,99.1724,VALID,0,VALID,19.8695,VALID,80,VALID,0.46875,
2003-01-13, 01:46:00,VALID,919.02,VALID,0,VALID,99.1699,VALID,0,VALID,19.8439,VALID,97,VALID,0.493945,
2003-01-13, 01:47:00,VALID,919.032,VALID,0,VALID,99.161,VALID,0,VALID,19.8242,VALID,86,VALID,0.70332,
2003-01-13, 01:48:00,VALID,919.017,VALID,0,VALID,99.1724,VALID,-0.0169808,VALID,19.8178,VALID,87,VALID,0.636018,
2003-01-13, 01:49:00,VALID,919.007,VALID,0,VALID,99.1534,VALID,0,VALID,19.8113,VALID,87,VALID,0.503125,
2003-01-13, 01:50:00,VALID,919.008,VALID,0,VALID,99.1572,VALID,-0.0169808,VALID,19.8051,VALID,85,VALID,0.508398,
2003-01-13, 01:51:00,VALID,919.004,VALID,0,VALID,99.1445,VALID,0,VALID,19.8016,VALID,84,VALID,0.463894,
2003-01-13, 01:52:00,VALID,919.002,VALID,0,VALID,99.147,VALID,-0.0169808,VALID,19.7884,VALID,90,VALID,0.681377,
2003-01-13, 01:53:00,VALID,918.992,VALID,0,VALID,99.1305,VALID,0,VALID,19.7884,VALID,87,VALID,0.655664,
2003-01-13, 01:54:00,VALID,918.986,VALID,0,VALID,99.1076,VALID,0,VALID,19.7725,VALID,87,VALID,0.486161,
2003-01-13, 01:55:00,VALID,918.99,VALID,0,VALID,99.1076,VALID,0,VALID,19.7728,VALID,87,VALID,0.623828,
2003-01-13, 01:56:00,VALID,918.971,VALID,0,VALID,99.1216,VALID,-0.0169808,VALID,19.7691,VALID,107,VALID,0.6873,
2003-01-13, 01:57:00,VALID,918.97,VALID,0,VALID,99.1216,VALID,-0.0169808,VALID,19.7599,VALID,109,VALID,0.815995,
2003-01-13, 01:58:00,VALID,918.956,VALID,0,VALID,99.1445,VALID,-0.0509425,VALID,19.7532,VALID,123,VALID,0.314967,
2003-01-13, 01:59:00,VALID,918.947,VALID,0,VALID,99.1559,VALID,0,VALID,19.7631,VALID,119,VALID,0.45613,
2003-01-13, 02:00:00,VALID,918.94,VALID,0,VALID,99.1852,VALID,0,VALID,19.7628,VALID,119,VALID,0.310742,
2003-01-13, 02:01:00,VALID,918.941,VALID,0,VALID,99.1661,VALID,-0.0339617,VALID,19.7661,VALID,133,VALID,0.466488,
2003-01-13, 02:02:00,VALID,918.923,VALID,0,VALID,99.1801,VALID,-0.0169808,VALID,19.7596,VALID,132,VALID,0.365986,
2003-01-13, 02:03:00,VALID,918.908,VALID,0,VALID,99.2004,VALID,0,VALID,19.7693,VALID,97,VALID,0.243389,
2003-01-13, 02:04:00,VALID,918.886,VALID,0,VALID,99.1966,VALID,0,VALID,19.7793,VALID,125,VALID,0.498733,
2003-01-13, 02:05:00,VALID,918.86,VALID,0,VALID,99.1953,VALID,0,VALID,19.7628,VALID,138,VALID,0.563133,
2003-01-13, 02:06:00,VALID,918.857,VALID,0,VALID,99.1775,VALID,-0.0169808,VALID,19.7596,VALID,116,VALID,0.516602,
2003-01-13, 02:07:00,VALID,918.839,VALID,0,VALID,99.1572,VALID,0,VALID,19.743,VALID,104,VALID,0.686581,
2003-01-13, 02:08:00,VALID,918.819,VALID,0,VALID,99.1445,VALID,0.0509425,VALID,19.7233,VALID,109,VALID,0.591077,
2003-01-13, 02:09:00,VALID,918.807,VALID,0,VALID,99.1292,VALID,0.0679233,VALID,19.7136,VALID,107,VALID,0.581931,
2003-01-13, 02:10:00,VALID,918.794,VALID,0,VALID,99.133,VALID,0.0509425,VALID,19.7007,VALID,94,VALID,0.580529,
2003-01-13, 02:11:00,VALID,918.768,VALID,0,VALID,99.1419,VALID,0.0679233,VALID,19.691,VALID,96,VALID,0.729646,
2003-01-13, 02:12:00,VALID,918.755,VALID,0,VALID,99.1648,VALID,0.0339617,VALID,19.6848,VALID,89,VALID,0.405297,
2003-01-13, 02:13:00,VALID,918.743,VALID,0,VALID,99.1648,VALID,0.0679233,VALID,19.6741,VALID,75,VALID,0.498197,
2003-01-13, 02:14:00,VALID,918.729,VALID,0,VALID,99.1381,VALID,0.0509425,VALID,19.6875,VALID,67,VALID,0.714527,
2003-01-13, 02:15:00,VALID,918.712,VALID,0,VALID,99.0885,VALID,0.0679233,VALID,19.6714,VALID,59,VALID,0.686061,
2003-01-13, 02:16:00,VALID,918.692,VALID,0,VALID,99.0427,VALID,0.0679233,VALID,19.6686,VALID,61,VALID,0.322985,
2003-01-13, 02:17:00,VALID,918.686,VALID,0,VALID,99.0046,VALID,0.0849042,VALID,19.6393,VALID,57,VALID,0.557292,
2003-01-13, 02:18:00,VALID,918.676,VALID,0,VALID,98.9944,VALID,0.0849042,VALID,19.6259,VALID,64,VALID,0.325658,
2003-01-13, 02:19:00,VALID,918.659,VALID,0,VALID,98.9677,VALID,0.0339617,VALID,19.6398,VALID,64,VALID,0.285979,
2003-01-13, 02:20:00,VALID,918.639,VALID,0,VALID,98.9245,VALID,0.0509425,VALID,19.6391,VALID,64,VALID,0.341295,
2003-01-13, 02:21:00,VALID,918.626,VALID,0,VALID,98.8469,VALID,0.0679233,VALID,19.6396,VALID,64,VALID,0.181691,
2003-01-13, 02:22:00,VALID,918.622,VALID,0,VALID,98.8342,VALID,0.0679233,VALID,19.6433,VALID,64,VALID,0.17023,
2003-01-13, 02:23:00,VALID,918.601,VALID,0,VALID,98.7719,VALID,-0.0339617,VALID,19.6244,VALID,64,VALID,0.279731,
2003-01-13, 02:24:00,VALID,918.594,VALID,0,VALID,98.7465,VALID,-0.0679233,VALID,19.6115,VALID,82,VALID,0.444079,
2003-01-13, 02:25:00,VALID,918.583,VALID,0,VALID,98.7719,VALID,-0.0169808,VALID,19.6147,VALID,95,VALID,0.358398,
2003-01-13, 02:26:00,VALID,918.565,VALID,0,VALID,98.7795,VALID,-0.0339617,VALID,19.6276,VALID,95,VALID,0.328711,
2003-01-13, 02:27:00,VALID,918.56,VALID,0,VALID,98.7668,VALID,-0.0509425,VALID,19.6214,VALID,87,VALID,0.478966,
2003-01-13, 02:28:00,VALID,918.563,VALID,0,VALID,98.7121,VALID,0,VALID,19.6279,VALID,87,VALID,0.28125,
2003-01-13, 02:29:00,VALID,918.547,VALID,0,VALID,98.6384,VALID,-0.0339617,VALID,19.6219,VALID,86,VALID,0.205078,
2003-01-13, 02:30:00,VALID,918.536,VALID,0,VALID,98.5684,VALID,-0.0679233,VALID,19.6053,VALID,86,VALID,0.274916,
2003-01-13, 02:31:00,VALID,918.523,VALID,0,VALID,98.5176,VALID,-0.0339617,VALID,19.5921,VALID,86,VALID,0.267525,
2003-01-13, 02:32:00,VALID,918.52,VALID,0,VALID,98.4629,VALID,-0.0169808,VALID,19.5988,VALID,86,VALID,0.30918,
2003-01-13, 02:33:00,VALID,918.512,VALID,0,VALID,98.4133,VALID,-0.0169808,VALID,19.5926,VALID,86,VALID,0.239955,
2003-01-13, 02:34:00,VALID,918.487,VALID,0,VALID,98.3268,VALID,-0.0339617,VALID,19.5762,VALID,86,VALID,0.141797,
2003-01-13, 02:35:00,VALID,918.465,VALID,0,VALID,98.2671,VALID,-0.0339617,VALID,19.5533,VALID,86,VALID,0.066907,
2003-01-13, 02:36:00,VALID,918.471,VALID,0,VALID,98.1272,VALID,-0.0339617,VALID,19.5275,VALID,86,VALID,0,
2003-01-13, 02:37:00,VALID,918.451,VALID,0,VALID,98.0356,VALID,-0.0169808,VALID,19.4981,VALID,86,VALID,0,
2003-01-13, 02:38:00,VALID,918.451,VALID,0,VALID,97.9542,VALID,-0.0169808,VALID,19.4755,VALID,75,VALID,0.0186298,
2003-01-13, 02:39:00,VALID,918.441,VALID,0,VALID,97.9123,VALID,-0.0509425,VALID,19.4827,VALID,38,VALID,0.38418,
2003-01-13, 02:40:00,VALID,918.439,VALID,0,VALID,97.8894,VALID,-0.0169808,VALID,19.4534,VALID,14,VALID,0.502056,
2003-01-13, 02:41:00,VALID,918.433,VALID,0,VALID,97.9034,VALID,-0.0339617,VALID,19.4335,VALID,357,VALID,0.645232,
2003-01-13, 02:42:00,VALID,918.434,VALID,0,VALID,97.953,VALID,0,VALID,19.4241,VALID,357,VALID,0.655048,
2003-01-13, 02:43:00,VALID,918.422,VALID,0,VALID,97.9797,VALID,-0.0339617,VALID,19.4017,VALID,354,VALID,0.589527,
2003-01-13, 02:44:00,VALID,918.417,VALID,0,VALID,98.0954,VALID,-0.0509425,VALID,19.3826,VALID,9,VALID,0.406883,
2003-01-13, 02:45:00,VALID,918.419,VALID,0,VALID,98.2035,VALID,-0.0509425,VALID,19.3597,VALID,11,VALID,0.46875,
2003-01-13, 02:46:00,VALID,918.413,VALID,0,VALID,98.2302,VALID,-0.0509425,VALID,19.3468,VALID,23,VALID,0.58318,
2003-01-13, 02:47:00,VALID,918.417,VALID,0,VALID,98.2861,VALID,-0.0339617,VALID,19.3182,VALID,13,VALID,0.659745,
2003-01-13, 02:48:00,VALID,918.387,VALID,0,VALID,98.3434,VALID,-0.0339617,VALID,19.2889,VALID,14,VALID,0.759615,
2003-01-13, 02:49:00,VALID,918.373,VALID,0,VALID,98.3764,VALID,-0.0169808,VALID,19.2598,VALID,24,VALID,0.736378,
2003-01-13, 02:50:00,VALID,918.349,VALID,0,VALID,98.4425,VALID,-0.0339617,VALID,19.2275,VALID,22,VALID,0.821135,
2003-01-13, 02:51:00,VALID,918.327,VALID,0,VALID,98.4235,VALID,-0.0339617,VALID,19.1915,VALID,25,VALID,0.98266,
2003-01-13, 02:52:00,VALID,918.318,VALID,0,VALID,98.4705,VALID,-0.0509425,VALID,19.1728,VALID,20,VALID,0.865986,
2003-01-13, 02:53:00,VALID,918.298,VALID,0,VALID,98.5672,VALID,0,VALID,19.1596,VALID,25,VALID,0.525549,
2003-01-13, 02:54:00,VALID,918.298,VALID,0,VALID,98.6244,VALID,-0.0169808,VALID,19.1562,VALID,12,VALID,0.379729,
2003-01-13, 02:55:00,VALID,918.295,VALID,0,VALID,98.6091,VALID,-0.0169808,VALID,19.1629,VALID,15,VALID,0.397615,
2003-01-13, 02:56:00,VALID,918.293,VALID,0,VALID,98.5239,VALID,-0.0339617,VALID,19.1209,VALID,30,VALID,0.965545,
2003-01-13, 02:57:00,VALID,918.319,VALID,0,VALID,98.5417,VALID,-0.0339617,VALID,19.1117,VALID,25,VALID,0.682771,
2003-01-13, 02:58:00,VALID,918.322,VALID,0,VALID,98.5519,VALID,-0.0339617,VALID,19.0987,VALID,19,VALID,0.81764,
2003-01-13, 02:59:00,VALID,918.325,VALID,0,VALID,98.5799,VALID,-0.0169808,VALID,19.0888,VALID,6,VALID,0.44933,
2003-01-13, 03:00:00,VALID,918.331,VALID,0,VALID,98.6091,VALID,-0.0169808,VALID,19.0918,VALID,6,VALID,0.229768,
2003-01-13, 03:01:00,VALID,918.327,VALID,0,VALID,98.5697,VALID,-0.0169808,VALID,19.092,VALID,7,VALID,0.434005,
2003-01-13, 03:02:00,VALID,918.329,VALID,0,VALID,98.3866,VALID,-0.0339617,VALID,19.0595,VALID,25,VALID,0.678168,
2003-01-13, 03:03:00,VALID,918.305,VALID,0,VALID,98.3141,VALID,-0.0169808,VALID,19.0533,VALID,23,VALID,0.250206,
2003-01-13, 03:04:00,VALID,918.314,VALID,0,VALID,98.2543,VALID,-0.0339617,VALID,19.0401,VALID,23,VALID,0,
2003-01-13, 03:05:00,VALID,918.306,VALID,0,VALID,98.1552,VALID,-0.0509425,VALID,19.0473,VALID,23,VALID,0.00625,
2003-01-13, 03:06:00,VALID,918.288,VALID,0,VALID,98.0903,VALID,-0.0169808,VALID,19.047,VALID,23,VALID,0.0735176,
2003-01-13, 03:07:00,VALID,918.282,VALID,0,VALID,97.9975,VALID,-0.0169808,VALID,19.0304,VALID,23,VALID,0.170312,
2003-01-13, 03:08:00,VALID,918.271,VALID,0,VALID,97.9339,VALID,-0.0339617,VALID,19.0306,VALID,69,VALID,0.326367,
2003-01-13, 03:09:00,VALID,918.27,VALID,0,VALID,97.8818,VALID,-0.0169808,VALID,19.0212,VALID,90,VALID,0.332137,
2003-01-13, 03:10:00,VALID,918.256,VALID,0,VALID,97.8411,VALID,-0.0169808,VALID,19.0279,VALID,92,VALID,0.188345,
2003-01-13, 03:11:00,VALID,918.25,VALID,0,VALID,97.8169,VALID,-0.0169808,VALID,19.0048,VALID,92,VALID,0.116797,
2003-01-13, 03:12:00,VALID,918.252,VALID,0,VALID,97.7762,VALID,-0.0339617,VALID,19.0117,VALID,92,VALID,0.0191964,
2003-01-13, 03:13:00,VALID,918.246,VALID,0,VALID,97.7533,VALID,-0.0509425,VALID,18.9986,VALID,92,VALID,0.392383,
2003-01-13, 03:14:00,VALID,918.237,VALID,0,VALID,97.7393,VALID,-0.0339617,VALID,18.9986,VALID,91,VALID,0.136418,
2003-01-13, 03:15:00,VALID,918.247,VALID,0,VALID,97.6185,VALID,-0.0169808,VALID,18.9727,VALID,90,VALID,0.33676,
2003-01-13, 03:16:00,VALID,918.247,VALID,0,VALID,97.6325,VALID,-0.101885,VALID,18.9732,VALID,90,VALID,0.437294,
2003-01-13, 03:17:00,VALID,918.238,VALID,0,VALID,97.6084,VALID,-0.0509425,VALID,18.9762,VALID,91,VALID,0.403446,
2003-01-13, 03:18:00,VALID,918.244,VALID,0,VALID,97.5079,VALID,-0.0509425,VALID,18.9757,VALID,94,VALID,0.227539,
2003-01-13, 03:19:00,VALID,918.246,VALID,0,VALID,97.4545,VALID,-0.0679233,VALID,18.9889,VALID,94,VALID,0,
2003-01-13, 03:20:00,VALID,918.246,VALID,0,VALID,97.3718,VALID,-0.0339617,VALID,18.9951,VALID,94,VALID,0,
2003-01-13, 03:21:00,VALID,918.233,VALID,0,VALID,97.2676,VALID,-0.0339617,VALID,18.9886,VALID,94,VALID,0,
2003-01-13, 03:22:00,VALID,918.23,VALID,0,VALID,97.2294,VALID,-0.0169808,VALID,18.9819,VALID,94,VALID,0,
2003-01-13, 03:23:00,VALID,918.211,VALID,0,VALID,97.1875,VALID,0.0509425,VALID,18.9748,VALID,94,VALID,0,
2003-01-13, 03:24:00,VALID,918.226,VALID,0,VALID,97.1709,VALID,0.0679233,VALID,18.9683,VALID,94,VALID,0,
2003-01-13, 03:25:00,VALID,918.214,VALID,0,VALID,97.1315,VALID,0.0509425,VALID,18.9584,VALID,94,VALID,0.273667,
2003-01-13, 03:26:00,VALID,918.203,VALID,0,VALID,97.1201,VALID,0.101885,VALID,18.9358,VALID,106,VALID,0.377262,
2003-01-13, 03:27:00,VALID,918.199,VALID,0,VALID,97.148,VALID,0.0849042,VALID,18.9164,VALID,145,VALID,0.501603,
2003-01-13, 03:28:00,VALID,918.202,VALID,0,VALID,97.3375,VALID,0.0509425,VALID,18.9069,VALID,144,VALID,0.51242,
2003-01-13, 03:29:00,VALID,918.188,VALID,0,VALID,97.3579,VALID,0.0849042,VALID,18.8968,VALID,143,VALID,0.238076,
2003-01-13, 03:30:00,VALID,918.197,VALID,0,VALID,97.3998,VALID,0.101885,VALID,18.8873,VALID,143,VALID,0.102706,
2003-01-13, 03:31:00,VALID,918.185,VALID,0,VALID,97.4507,VALID,0.0849042,VALID,18.8677,VALID,138,VALID,0.21895,
2003-01-13, 03:32:00,VALID,918.197,VALID,0,VALID,97.2956,VALID,0.0679233,VALID,18.8257,VALID,124,VALID,0.365921,
2003-01-13, 03:33:00,VALID,918.204,VALID,0,VALID,97.2027,VALID,0.0849042,VALID,18.7807,VALID,89,VALID,0.5294,